Year,Month,Day,Hour,Minute,Value (Times are PST for temperature in C)
2011,04,17,00,00,3.40
2011,04,17,00,01,3.40
2011,04,17,00,02,3.40
2011,04,17,00,03,3.40
2011,04,17,00,04,3.30
2011,04,17,00,05,3.30
2011,04,17,00,06,3.30
2011,04,17,00,07,3.30
2011,04,17,00,08,3.30
2011,04,17,00,09,3.30
2011,04,17,00,10,3.20
2011,04,17,00,11,3.20
2011,04,17,00,12,3.20
2011,04,17,00,13,3.20
2011,04,17,00,14,3.20
2011,04,17,00,15,3.20
2011,04,17,00,16,3.20
2011,04,17,00,17,3.20
2011,04,17,00,18,3.20
2011,04,17,00,19,3.20
2011,04,17,00,20,3.20
2011,04,17,00,21,3.20
2011,04,17,00,22,3.10
2011,04,17,00,23,3.20
2011,04,17,00,24,3.20
2011,04,17,00,25,3.20
2011,04,17,00,26,3.20
2011,04,17,00,27,3.20
2011,04,17,00,28,3.20
2011,04,17,00,29,3.20
2011,04,17,00,30,3.20
2011,04,17,00,31,3.20
2011,04,17,00,32,3.20
2011,04,17,00,33,3.20
2011,04,17,00,34,3.10
2011,04,17,00,35,3.10
2011,04,17,00,36,3.10
2011,04,17,00,37,3.10
2011,04,17,00,38,3.10
2011,04,17,00,39,3.10
2011,04,17,00,40,3.10
2011,04,17,00,41,3.10
2011,04,17,00,42,3.20
2011,04,17,00,43,3.20
2011,04,17,00,44,3.20
2011,04,17,00,45,3.20
2011,04,17,00,46,3.10
2011,04,17,00,47,3.10
2011,04,17,00,48,3.10
2011,04,17,00,49,3.10
2011,04,17,00,50,3.10
2011,04,17,00,51,3.10
2011,04,17,00,52,3.10
2011,04,17,00,53,3.10
2011,04,17,00,54,3.10
2011,04,17,00,55,3.10
2011,04,17,00,56,3.10
2011,04,17,00,57,3.10
2011,04,17,00,58,3.10
2011,04,17,00,59,3.00
2011,04,17,01,00,3.00
2011,04,17,01,01,3.00
2011,04,17,01,02,3.00
2011,04,17,01,03,2.90
2011,04,17,01,04,2.90
2011,04,17,01,05,2.90
2011,04,17,01,06,2.90
2011,04,17,01,07,2.90
2011,04,17,01,08,2.90
2011,04,17,01,09,2.90
2011,04,17,01,10,2.80
2011,04,17,01,11,2.80
2011,04,17,01,12,2.80
2011,04,17,01,13,2.80
2011,04,17,01,14,2.80
2011,04,17,01,15,2.80
2011,04,17,01,16,2.80
2011,04,17,01,17,2.80
2011,04,17,01,18,2.80
2011,04,17,01,19,2.90
2011,04,17,01,20,2.90
2011,04,17,01,21,2.90
2011,04,17,01,22,2.90
2011,04,17,01,23,2.90
2011,04,17,01,24,2.90
2011,04,17,01,25,2.90
2011,04,17,01,26,2.90
2011,04,17,01,27,2.90
2011,04,17,01,28,2.90
2011,04,17,01,29,2.90
2011,04,17,01,30,2.90
2011,04,17,01,31,2.90
2011,04,17,01,32,2.90
2011,04,17,01,33,2.90
2011,04,17,01,34,2.90
2011,04,17,01,35,3.00
2011,04,17,01,36,3.00
2011,04,17,01,37,3.00
2011,04,17,01,38,3.00
2011,04,17,01,39,3.00
2011,04,17,01,40,3.00
2011,04,17,01,41,3.00
2011,04,17,01,42,3.00
2011,04,17,01,43,3.00
2011,04,17,01,44,3.00
2011,04,17,01,45,3.00
2011,04,17,01,46,2.90
2011,04,17,01,47,2.90
2011,04,17,01,48,2.90
2011,04,17,01,49,2.90
2011,04,17,01,50,2.90
2011,04,17,01,51,2.90
2011,04,17,01,52,2.90
2011,04,17,01,53,2.90
2011,04,17,01,54,2.90
2011,04,17,01,55,2.90
2011,04,17,01,56,2.90
2011,04,17,01,57,2.90
2011,04,17,01,58,2.90
2011,04,17,01,59,2.90
2011,04,17,02,00,2.90
2011,04,17,02,01,2.90
2011,04,17,02,02,2.90
2011,04,17,02,03,2.90
2011,04,17,02,04,2.90
2011,04,17,02,05,2.90
2011,04,17,02,06,2.90
2011,04,17,02,07,2.90
2011,04,17,02,08,2.90
2011,04,17,02,09,2.90
2011,04,17,02,10,2.90
2011,04,17,02,11,2.90
2011,04,17,02,12,2.90
2011,04,17,02,13,2.90
2011,04,17,02,14,2.90
2011,04,17,02,15,2.90
2011,04,17,02,16,2.90
2011,04,17,02,17,2.90
2011,04,17,02,18,2.90
2011,04,17,02,19,2.90
2011,04,17,02,20,2.90
2011,04,17,02,21,2.90
2011,04,17,02,22,2.90
2011,04,17,02,23,2.90
2011,04,17,02,24,2.90
2011,04,17,02,25,2.90
2011,04,17,02,26,2.90
2011,04,17,02,27,2.90
2011,04,17,02,28,2.90
2011,04,17,02,29,2.90
2011,04,17,02,30,2.90
2011,04,17,02,31,2.90
2011,04,17,02,32,2.90
2011,04,17,02,33,2.90
2011,04,17,02,34,2.90
2011,04,17,02,35,2.90
2011,04,17,02,36,2.90
2011,04,17,02,37,3.00
2011,04,17,02,38,3.00
2011,04,17,02,39,3.00
2011,04,17,02,40,3.00
2011,04,17,02,41,3.10
2011,04,17,02,42,3.10
2011,04,17,02,43,3.00
2011,04,17,02,44,3.00
2011,04,17,02,45,3.00
2011,04,17,02,46,3.00
2011,04,17,02,47,3.00
2011,04,17,02,48,3.00
2011,04,17,02,49,2.90
2011,04,17,02,50,2.90
2011,04,17,02,51,2.90
2011,04,17,02,52,2.90
2011,04,17,02,53,2.90
2011,04,17,02,54,2.90
2011,04,17,02,55,2.90
2011,04,17,02,56,2.90
2011,04,17,02,57,2.90
2011,04,17,02,58,2.90
2011,04,17,02,59,3.00
2011,04,17,03,00,2.90
2011,04,17,03,01,2.90
2011,04,17,03,02,2.90
2011,04,17,03,03,2.90
2011,04,17,03,04,2.90
2011,04,17,03,05,2.90
2011,04,17,03,06,2.90
2011,04,17,03,07,2.90
2011,04,17,03,08,2.90
2011,04,17,03,09,2.90
2011,04,17,03,10,2.90
2011,04,17,03,11,2.90
2011,04,17,03,12,2.90
2011,04,17,03,13,2.90
2011,04,17,03,14,2.90
2011,04,17,03,15,2.90
2011,04,17,03,16,2.90
2011,04,17,03,17,2.90
2011,04,17,03,18,3.00
2011,04,17,03,19,3.00
2011,04,17,03,20,3.00
2011,04,17,03,21,3.00
2011,04,17,03,22,3.00
2011,04,17,03,23,3.00
2011,04,17,03,24,3.00
2011,04,17,03,25,3.00
2011,04,17,03,26,3.10
2011,04,17,03,27,3.10
2011,04,17,03,28,3.10
2011,04,17,03,29,3.10
2011,04,17,03,30,3.10
2011,04,17,03,31,3.10
2011,04,17,03,32,3.10
2011,04,17,03,33,3.10
2011,04,17,03,34,3.10
2011,04,17,03,35,3.10
2011,04,17,03,36,3.10
2011,04,17,03,37,3.10
2011,04,17,03,38,3.10
2011,04,17,03,39,3.10
2011,04,17,03,40,3.10
2011,04,17,03,41,3.10
2011,04,17,03,42,3.10
2011,04,17,03,43,3.10
2011,04,17,03,44,3.10
2011,04,17,03,45,3.10
2011,04,17,03,46,3.10
2011,04,17,03,47,3.10
2011,04,17,03,48,3.10
2011,04,17,03,49,3.10
2011,04,17,03,50,3.10
2011,04,17,03,51,3.10
2011,04,17,03,52,3.10
2011,04,17,03,53,3.10
2011,04,17,03,54,3.10
2011,04,17,03,55,3.10
2011,04,17,03,56,3.10
2011,04,17,03,57,3.10
2011,04,17,03,58,3.10
2011,04,17,03,59,3.10
2011,04,17,04,00,3.10
2011,04,17,04,01,3.10
2011,04,17,04,02,3.10
2011,04,17,04,03,3.10
2011,04,17,04,04,3.10
2011,04,17,04,05,3.10
2011,04,17,04,06,3.10
2011,04,17,04,07,3.10
2011,04,17,04,08,3.10
2011,04,17,04,09,3.10
2011,04,17,04,10,3.10
2011,04,17,04,11,3.10
2011,04,17,04,12,3.10
2011,04,17,04,13,3.10
2011,04,17,04,14,3.10
2011,04,17,04,15,3.10
2011,04,17,04,16,3.10
2011,04,17,04,17,3.10
2011,04,17,04,18,3.10
2011,04,17,04,19,3.10
2011,04,17,04,20,3.10
2011,04,17,04,21,3.10
2011,04,17,04,22,3.10
2011,04,17,04,23,3.10
2011,04,17,04,24,3.10
2011,04,17,04,25,3.10
2011,04,17,04,26,3.10
2011,04,17,04,27,3.10
2011,04,17,04,28,3.10
2011,04,17,04,29,3.10
2011,04,17,04,30,3.10
2011,04,17,04,31,3.10
2011,04,17,04,32,3.10
2011,04,17,04,33,3.10
2011,04,17,04,34,3.10
2011,04,17,04,35,3.00
2011,04,17,04,36,3.00
2011,04,17,04,37,3.00
2011,04,17,04,38,3.00
2011,04,17,04,39,3.00
2011,04,17,04,40,3.00
2011,04,17,04,41,3.00
2011,04,17,04,42,3.00
2011,04,17,04,43,3.00
2011,04,17,04,44,3.10
2011,04,17,04,45,3.10
2011,04,17,04,46,3.10
2011,04,17,04,47,3.10
2011,04,17,04,48,3.00
2011,04,17,04,49,3.10
2011,04,17,04,50,3.10
2011,04,17,04,51,3.10
2011,04,17,04,52,3.10
2011,04,17,04,53,3.10
2011,04,17,04,54,3.00
2011,04,17,04,55,3.00
2011,04,17,04,56,3.00
2011,04,17,04,57,3.00
2011,04,17,04,58,3.00
2011,04,17,04,59,3.00
2011,04,17,05,00,2.90
2011,04,17,05,01,2.90
2011,04,17,05,02,2.90
2011,04,17,05,03,2.90
2011,04,17,05,04,2.90
2011,04,17,05,05,2.90
2011,04,17,05,06,2.90
2011,04,17,05,07,2.90
2011,04,17,05,08,2.90
2011,04,17,05,09,2.90
2011,04,17,05,10,3.00
2011,04,17,05,11,3.00
2011,04,17,05,12,3.00
2011,04,17,05,13,3.00
2011,04,17,05,14,3.00
2011,04,17,05,15,3.00
2011,04,17,05,16,3.00
2011,04,17,05,17,2.90
2011,04,17,05,18,2.90
2011,04,17,05,19,2.90
2011,04,17,05,20,2.90
2011,04,17,05,21,2.90
2011,04,17,05,22,2.90
2011,04,17,05,23,2.90
2011,04,17,05,24,2.90
2011,04,17,05,25,2.90
2011,04,17,05,26,2.90
2011,04,17,05,27,2.90
2011,04,17,05,28,2.90
2011,04,17,05,29,2.90
2011,04,17,05,30,2.90
2011,04,17,05,31,2.90
2011,04,17,05,32,2.90
2011,04,17,05,33,2.90
2011,04,17,05,34,2.90
2011,04,17,05,35,2.90
2011,04,17,05,36,2.90
2011,04,17,05,37,2.90
2011,04,17,05,38,2.90
2011,04,17,05,39,2.90
2011,04,17,05,40,2.90
2011,04,17,05,41,2.90
2011,04,17,05,42,2.90
2011,04,17,05,43,2.90
2011,04,17,05,44,2.90
2011,04,17,05,45,2.90
2011,04,17,05,46,2.90
2011,04,17,05,47,2.90
2011,04,17,05,48,2.90
2011,04,17,05,49,2.90
2011,04,17,05,50,2.90
2011,04,17,05,51,2.90
2011,04,17,05,52,2.90
2011,04,17,05,53,2.90
2011,04,17,05,54,2.90
2011,04,17,05,55,2.90
2011,04,17,05,56,2.80
2011,04,17,05,57,2.80
2011,04,17,05,58,2.80
2011,04,17,05,59,2.80
2011,04,17,06,00,2.80
2011,04,17,06,01,2.80
2011,04,17,06,02,2.80
2011,04,17,06,03,2.80
2011,04,17,06,04,2.80
2011,04,17,06,05,2.80
2011,04,17,06,06,2.80
2011,04,17,06,07,2.80
2011,04,17,06,08,2.80
2011,04,17,06,09,2.80
2011,04,17,06,10,2.80
2011,04,17,06,11,2.80
2011,04,17,06,12,2.80
2011,04,17,06,13,2.80
2011,04,17,06,14,2.80
2011,04,17,06,15,2.80
2011,04,17,06,16,2.80
2011,04,17,06,17,2.80
2011,04,17,06,18,2.80
2011,04,17,06,19,2.80
2011,04,17,06,20,2.80
2011,04,17,06,21,2.80
2011,04,17,06,22,2.80
2011,04,17,06,23,2.80
2011,04,17,06,24,2.80
2011,04,17,06,25,2.80
2011,04,17,06,26,2.80
2011,04,17,06,27,2.80
2011,04,17,06,28,2.80
2011,04,17,06,29,2.80
2011,04,17,06,30,2.80
2011,04,17,06,31,2.80
2011,04,17,06,32,2.80
2011,04,17,06,33,2.80
2011,04,17,06,34,2.80
2011,04,17,06,35,2.80
2011,04,17,06,36,2.80
2011,04,17,06,37,2.80
2011,04,17,06,38,2.80
2011,04,17,06,39,2.80
2011,04,17,06,40,2.80
2011,04,17,06,41,2.80
2011,04,17,06,42,2.80
2011,04,17,06,43,2.80
2011,04,17,06,44,2.80
2011,04,17,06,45,2.80
2011,04,17,06,46,2.80
2011,04,17,06,47,2.80
2011,04,17,06,48,2.80
2011,04,17,06,49,2.80
2011,04,17,06,50,2.80
2011,04,17,06,51,2.80
2011,04,17,06,52,2.80
2011,04,17,06,53,2.80
2011,04,17,06,54,2.80
2011,04,17,06,55,2.80
2011,04,17,06,56,2.80
2011,04,17,06,57,2.80
2011,04,17,06,58,2.80
2011,04,17,06,59,2.80
2011,04,17,07,00,2.80
2011,04,17,07,01,2.80
2011,04,17,07,02,2.80
2011,04,17,07,03,2.80
2011,04,17,07,04,2.80
2011,04,17,07,05,2.80
2011,04,17,07,06,2.80
2011,04,17,07,07,2.80
2011,04,17,07,08,2.80
2011,04,17,07,09,2.80
2011,04,17,07,10,2.80
2011,04,17,07,11,2.80
2011,04,17,07,12,2.80
2011,04,17,07,13,2.80
2011,04,17,07,14,2.80
2011,04,17,07,15,2.80
2011,04,17,07,16,2.80
2011,04,17,07,17,2.80
2011,04,17,07,18,2.80
2011,04,17,07,19,2.80
2011,04,17,07,20,2.80
2011,04,17,07,21,2.80
2011,04,17,07,22,2.80
2011,04,17,07,23,2.80
2011,04,17,07,24,2.80
2011,04,17,07,25,2.80
2011,04,17,07,26,2.80
2011,04,17,07,27,2.80
2011,04,17,07,28,2.80
2011,04,17,07,29,2.80
2011,04,17,07,30,2.80
2011,04,17,07,31,2.80
2011,04,17,07,32,2.80
2011,04,17,07,33,2.80
2011,04,17,07,34,2.80
2011,04,17,07,35,2.90
2011,04,17,07,36,2.90
2011,04,17,07,37,2.90
2011,04,17,07,38,2.90
2011,04,17,07,39,2.90
2011,04,17,07,40,2.90
2011,04,17,07,41,2.90
2011,04,17,07,42,2.90
2011,04,17,07,43,2.90
2011,04,17,07,44,2.90
2011,04,17,07,45,2.90
2011,04,17,07,46,2.90
2011,04,17,07,47,2.90
2011,04,17,07,48,2.90
2011,04,17,07,49,2.90
2011,04,17,07,50,2.90
2011,04,17,07,51,2.90
2011,04,17,07,52,2.90
2011,04,17,07,53,2.90
2011,04,17,07,54,2.90
2011,04,17,07,55,2.90
2011,04,17,07,56,2.90
2011,04,17,07,57,2.90
2011,04,17,07,58,2.90
2011,04,17,07,59,2.90
2011,04,17,08,00,2.90
2011,04,17,08,01,2.90
2011,04,17,08,02,2.90
2011,04,17,08,03,2.90
2011,04,17,08,04,2.90
2011,04,17,08,05,2.90
2011,04,17,08,06,2.90
2011,04,17,08,07,2.90
2011,04,17,08,08,2.90
2011,04,17,08,09,2.90
2011,04,17,08,10,2.90
2011,04,17,08,11,2.90
2011,04,17,08,12,2.90
2011,04,17,08,13,3.00
2011,04,17,08,14,3.00
2011,04,17,08,15,3.00
2011,04,17,08,16,3.00
2011,04,17,08,17,3.00
2011,04,17,08,18,3.00
2011,04,17,08,19,3.10
2011,04,17,08,20,3.10
2011,04,17,08,21,3.10
2011,04,17,08,22,3.10
2011,04,17,08,23,3.10
2011,04,17,08,24,3.10
2011,04,17,08,25,3.10
2011,04,17,08,26,3.10
2011,04,17,08,27,3.10
2011,04,17,08,28,3.10
2011,04,17,08,29,3.10
2011,04,17,08,30,3.10
2011,04,17,08,31,3.10
2011,04,17,08,32,3.10
2011,04,17,08,33,3.10
2011,04,17,08,34,3.10
2011,04,17,08,35,3.10
2011,04,17,08,36,3.20
2011,04,17,08,37,3.20
2011,04,17,08,38,3.20
2011,04,17,08,39,3.20
2011,04,17,08,40,3.20
2011,04,17,08,41,3.20
2011,04,17,08,42,3.20
2011,04,17,08,43,3.20
2011,04,17,08,44,3.20
2011,04,17,08,45,3.20
2011,04,17,08,46,3.20
2011,04,17,08,47,3.20
2011,04,17,08,48,3.20
2011,04,17,08,49,3.20
2011,04,17,08,50,3.20
2011,04,17,08,51,3.20
2011,04,17,08,52,3.20
2011,04,17,08,53,3.20
2011,04,17,08,54,3.20
2011,04,17,08,55,3.20
2011,04,17,08,56,3.20
2011,04,17,08,57,3.30
2011,04,17,08,58,3.30
2011,04,17,08,59,3.30
2011,04,17,09,00,3.30
2011,04,17,09,01,3.30
2011,04,17,09,02,3.30
2011,04,17,09,03,3.30
2011,04,17,09,04,3.30
2011,04,17,09,05,3.40
2011,04,17,09,06,3.40
2011,04,17,09,07,3.40
2011,04,17,09,08,3.40
2011,04,17,09,09,3.40
2011,04,17,09,10,3.40
2011,04,17,09,11,3.40
2011,04,17,09,12,3.50
2011,04,17,09,13,3.50
2011,04,17,09,14,3.50
2011,04,17,09,15,3.50
2011,04,17,09,16,3.60
2011,04,17,09,17,3.60
2011,04,17,09,18,3.60
2011,04,17,09,19,3.60
2011,04,17,09,20,3.60
2011,04,17,09,21,3.60
2011,04,17,09,22,3.60
2011,04,17,09,23,3.60
2011,04,17,09,24,3.60
2011,04,17,09,25,3.60
2011,04,17,09,26,3.70
2011,04,17,09,27,3.70
2011,04,17,09,28,3.70
2011,04,17,09,29,3.80
2011,04,17,09,30,3.80
2011,04,17,09,31,3.80
2011,04,17,09,32,3.80
2011,04,17,09,33,3.80
2011,04,17,09,34,3.80
2011,04,17,09,35,3.80
2011,04,17,09,36,3.90
2011,04,17,09,37,3.90
2011,04,17,09,38,3.90
2011,04,17,09,39,3.90
2011,04,17,09,40,3.90
2011,04,17,09,41,3.90
2011,04,17,09,42,3.90
2011,04,17,09,43,4.00
2011,04,17,09,44,4.00
2011,04,17,09,45,4.10
2011,04,17,09,46,4.10
2011,04,17,09,47,4.20
2011,04,17,09,48,4.20
2011,04,17,09,49,4.20
2011,04,17,09,50,4.30
2011,04,17,09,51,4.30
2011,04,17,09,52,4.30
2011,04,17,09,53,4.30
2011,04,17,09,54,4.30
2011,04,17,09,55,4.30
2011,04,17,09,56,4.30
2011,04,17,09,57,4.30
2011,04,17,09,58,4.30
2011,04,17,09,59,4.20
2011,04,17,10,00,4.20
2011,04,17,10,01,4.20
2011,04,17,10,02,4.20
2011,04,17,10,03,4.20
2011,04,17,10,04,4.20
2011,04,17,10,05,4.20
2011,04,17,10,06,4.20
2011,04,17,10,07,4.10
2011,04,17,10,08,4.10
2011,04,17,10,09,4.20
2011,04,17,10,10,4.20
2011,04,17,10,11,4.20
2011,04,17,10,12,4.20
2011,04,17,10,13,4.30
2011,04,17,10,14,4.30
2011,04,17,10,15,4.30
2011,04,17,10,16,4.30
2011,04,17,10,17,4.30
2011,04,17,10,18,4.40
2011,04,17,10,19,4.40
2011,04,17,10,20,4.30
2011,04,17,10,21,4.30
2011,04,17,10,22,4.30
2011,04,17,10,23,4.40
2011,04,17,10,24,4.40
2011,04,17,10,25,4.50
2011,04,17,10,26,4.50
2011,04,17,10,27,4.60
2011,04,17,10,28,4.60
2011,04,17,10,29,4.70
2011,04,17,10,30,4.80
2011,04,17,10,31,4.90
2011,04,17,10,32,5.00
2011,04,17,10,33,5.10
2011,04,17,10,34,5.20
2011,04,17,10,35,5.30
2011,04,17,10,36,5.40
2011,04,17,10,37,5.50
2011,04,17,10,38,5.70
2011,04,17,10,39,5.80
2011,04,17,10,40,6.00
2011,04,17,10,41,6.10
2011,04,17,10,42,6.30
2011,04,17,10,43,6.40
2011,04,17,10,44,6.60
2011,04,17,10,45,6.70
2011,04,17,10,46,6.90
2011,04,17,10,47,7.00
2011,04,17,10,48,7.20
2011,04,17,10,49,7.30
2011,04,17,10,50,7.50
2011,04,17,10,51,7.60
2011,04,17,10,52,7.70
2011,04,17,10,53,7.80
2011,04,17,10,54,7.90
2011,04,17,10,55,8.00
2011,04,17,10,56,8.10
2011,04,17,10,57,8.20
2011,04,17,10,58,8.20
2011,04,17,10,59,8.20
2011,04,17,11,00,8.30
2011,04,17,11,01,8.30
2011,04,17,11,02,8.30
2011,04,17,11,03,8.30
2011,04,17,11,04,8.30
2011,04,17,11,05,8.30
2011,04,17,11,06,8.30
2011,04,17,11,07,8.30
2011,04,17,11,08,8.40
2011,04,17,11,09,8.50
2011,04,17,11,10,8.70
2011,04,17,11,11,8.90
2011,04,17,11,12,9.10
2011,04,17,11,13,9.30
2011,04,17,11,14,9.50
2011,04,17,11,15,9.80
2011,04,17,11,16,10.00
2011,04,17,11,17,10.20
2011,04,17,11,18,10.40
2011,04,17,11,19,10.50
2011,04,17,11,20,10.60
2011,04,17,11,21,10.70
2011,04,17,11,22,10.70
2011,04,17,11,23,10.80
2011,04,17,11,24,10.90
2011,04,17,11,25,11.00
2011,04,17,11,26,11.10
2011,04,17,11,27,11.10
2011,04,17,11,28,11.00
2011,04,17,11,29,10.90
2011,04,17,11,30,10.80
2011,04,17,11,31,10.60
2011,04,17,11,32,10.50
2011,04,17,11,33,10.40
2011,04,17,11,34,10.30
2011,04,17,11,35,10.20
2011,04,17,11,36,9.90
2011,04,17,11,37,9.70
2011,04,17,11,38,9.50
2011,04,17,11,39,9.40
2011,04,17,11,40,9.30
2011,04,17,11,41,9.30
2011,04,17,11,42,9.20
2011,04,17,11,43,9.20
2011,04,17,11,44,9.30
2011,04,17,11,45,9.30
2011,04,17,11,46,9.30
2011,04,17,11,47,9.30
2011,04,17,11,48,9.40
2011,04,17,11,49,9.40
2011,04,17,11,50,9.40
2011,04,17,11,51,9.50
2011,04,17,11,52,9.50
2011,04,17,11,53,9.60
2011,04,17,11,54,9.60
2011,04,17,11,55,9.60
2011,04,17,11,56,9.70
2011,04,17,11,57,9.80
2011,04,17,11,58,9.80
2011,04,17,11,59,9.90
2011,04,17,12,00,10.00
2011,04,17,12,01,10.10
2011,04,17,12,02,10.10
2011,04,17,12,03,10.10
2011,04,17,12,04,10.10
2011,04,17,12,05,10.00
2011,04,17,12,06,9.90
2011,04,17,12,07,9.80
2011,04,17,12,08,9.80
2011,04,17,12,09,9.80
2011,04,17,12,10,9.70
2011,04,17,12,11,9.60
2011,04,17,12,12,9.50
2011,04,17,12,13,9.50
2011,04,17,12,14,9.40
2011,04,17,12,15,9.40
2011,04,17,12,16,9.40
2011,04,17,12,17,9.40
2011,04,17,12,18,9.40
2011,04,17,12,19,9.40
2011,04,17,12,20,9.40
2011,04,17,12,21,9.40
2011,04,17,12,22,9.40
2011,04,17,12,23,9.50
2011,04,17,12,24,9.50
2011,04,17,12,25,9.60
2011,04,17,12,26,9.70
2011,04,17,12,27,9.80
2011,04,17,12,28,9.80
2011,04,17,12,29,9.80
2011,04,17,12,30,9.80
2011,04,17,12,31,9.80
2011,04,17,12,32,9.70
2011,04,17,12,33,9.70
2011,04,17,12,34,9.70
2011,04,17,12,35,9.70
2011,04,17,12,36,9.70
2011,04,17,12,37,9.60
2011,04,17,12,38,9.60
2011,04,17,12,39,9.50
2011,04,17,12,40,9.50
2011,04,17,12,41,9.40
2011,04,17,12,42,9.30
2011,04,17,12,43,9.20
2011,04,17,12,44,9.20
2011,04,17,12,45,9.10
2011,04,17,12,46,9.10
2011,04,17,12,47,9.10
2011,04,17,12,48,9.10
2011,04,17,12,49,9.10
2011,04,17,12,50,9.20
2011,04,17,12,51,9.30
2011,04,17,12,52,9.40
2011,04,17,12,53,9.40
2011,04,17,12,54,9.50
2011,04,17,12,55,9.50
2011,04,17,12,56,9.60
2011,04,17,12,57,9.70
2011,04,17,12,58,9.80
2011,04,17,12,59,9.80
2011,04,17,13,00,9.90
2011,04,17,13,01,10.00
2011,04,17,13,02,10.10
2011,04,17,13,03,10.10
2011,04,17,13,04,10.20
2011,04,17,13,05,10.20
2011,04,17,13,06,10.10
2011,04,17,13,07,10.10
2011,04,17,13,08,10.00
2011,04,17,13,09,9.90
2011,04,17,13,10,10.00
2011,04,17,13,11,10.00
2011,04,17,13,12,10.10
2011,04,17,13,13,10.20
2011,04,17,13,14,10.30
2011,04,17,13,15,10.40
2011,04,17,13,16,10.40
2011,04,17,13,17,10.50
2011,04,17,13,18,10.60
2011,04,17,13,19,10.60
2011,04,17,13,20,10.70
2011,04,17,13,21,10.80
2011,04,17,13,22,11.00
2011,04,17,13,23,11.10
2011,04,17,13,24,11.10
2011,04,17,13,25,11.00
2011,04,17,13,26,10.70
2011,04,17,13,27,10.50
2011,04,17,13,28,10.20
2011,04,17,13,29,10.00
2011,04,17,13,30,9.90
2011,04,17,13,31,9.90
2011,04,17,13,32,9.90
2011,04,17,13,33,10.00
2011,04,17,13,34,10.10
2011,04,17,13,35,10.20
2011,04,17,13,36,10.30
2011,04,17,13,37,10.50
2011,04,17,13,38,10.60
2011,04,17,13,39,10.80
2011,04,17,13,40,11.10
2011,04,17,13,41,11.20
2011,04,17,13,42,11.40
2011,04,17,13,43,11.60
2011,04,17,13,44,11.80
2011,04,17,13,45,12.00
2011,04,17,13,46,12.20
2011,04,17,13,47,12.40
2011,04,17,13,48,12.50
2011,04,17,13,49,12.60
2011,04,17,13,50,12.70
2011,04,17,13,51,12.80
2011,04,17,13,52,12.80
2011,04,17,13,53,12.80
2011,04,17,13,54,12.80
2011,04,17,13,55,12.90
2011,04,17,13,56,12.80
2011,04,17,13,57,12.80
2011,04,17,13,58,12.70
2011,04,17,13,59,12.60
2011,04,17,14,00,12.50
2011,04,17,14,01,12.40
2011,04,17,14,02,12.20
2011,04,17,14,03,12.10
2011,04,17,14,04,11.90
2011,04,17,14,05,11.80
2011,04,17,14,06,11.80
2011,04,17,14,07,11.70
2011,04,17,14,08,11.70
2011,04,17,14,09,11.70
2011,04,17,14,10,11.80
2011,04,17,14,11,11.80
2011,04,17,14,12,11.90
2011,04,17,14,13,12.00
2011,04,17,14,14,12.00
2011,04,17,14,15,12.10
2011,04,17,14,16,12.10
2011,04,17,14,17,12.10
2011,04,17,14,18,12.00
2011,04,17,14,19,11.90
2011,04,17,14,20,11.70
2011,04,17,14,21,11.60
2011,04,17,14,22,11.50
2011,04,17,14,23,11.40
2011,04,17,14,24,11.30
2011,04,17,14,25,11.20
2011,04,17,14,26,11.10
2011,04,17,14,27,10.90
2011,04,17,14,28,10.80
2011,04,17,14,29,10.70
2011,04,17,14,30,10.50
2011,04,17,14,31,10.40
2011,04,17,14,32,10.20
2011,04,17,14,33,10.10
2011,04,17,14,34,10.00
2011,04,17,14,35,10.00
2011,04,17,14,36,10.10
2011,04,17,14,37,10.20
2011,04,17,14,38,10.20
2011,04,17,14,39,10.30
2011,04,17,14,40,10.20
2011,04,17,14,41,10.20
2011,04,17,14,42,10.10
2011,04,17,14,43,10.00
2011,04,17,14,44,9.90
2011,04,17,14,45,9.80
2011,04,17,14,46,9.90
2011,04,17,14,47,10.00
2011,04,17,14,48,10.10
2011,04,17,14,49,10.20
2011,04,17,14,50,10.30
2011,04,17,14,51,10.40
2011,04,17,14,52,10.40
2011,04,17,14,53,10.40
2011,04,17,14,54,10.40
2011,04,17,14,55,10.30
2011,04,17,14,56,10.30
2011,04,17,14,57,10.30
2011,04,17,14,58,10.30
2011,04,17,14,59,10.30
2011,04,17,15,00,10.30
2011,04,17,15,01,10.30
2011,04,17,15,02,10.30
2011,04,17,15,03,10.20
2011,04,17,15,04,10.20
2011,04,17,15,05,10.20
2011,04,17,15,06,10.20
2011,04,17,15,07,10.20
2011,04,17,15,08,10.20
2011,04,17,15,09,10.20
2011,04,17,15,10,10.30
2011,04,17,15,11,10.40
2011,04,17,15,12,10.50
2011,04,17,15,13,10.60
2011,04,17,15,14,10.50
2011,04,17,15,15,10.50
2011,04,17,15,16,10.30
2011,04,17,15,17,10.20
2011,04,17,15,18,10.10
2011,04,17,15,19,10.00
2011,04,17,15,20,10.00
2011,04,17,15,21,10.00
2011,04,17,15,22,10.10
2011,04,17,15,23,10.10
2011,04,17,15,24,10.10
2011,04,17,15,25,10.20
2011,04,17,15,26,10.20
2011,04,17,15,27,10.30
2011,04,17,15,28,10.30
2011,04,17,15,29,10.40
2011,04,17,15,30,10.40
2011,04,17,15,31,10.50
2011,04,17,15,32,10.40
2011,04,17,15,33,10.40
2011,04,17,15,34,10.50
2011,04,17,15,35,10.40
2011,04,17,15,36,10.30
2011,04,17,15,37,10.30
2011,04,17,15,38,10.30
2011,04,17,15,39,10.40
2011,04,17,15,40,10.40
2011,04,17,15,41,10.40
2011,04,17,15,42,10.50
2011,04,17,15,43,10.60
2011,04,17,15,44,10.50
2011,04,17,15,45,10.40
2011,04,17,15,46,10.30
2011,04,17,15,47,10.20
2011,04,17,15,48,10.30
2011,04,17,15,49,10.30
2011,04,17,15,50,10.40
2011,04,17,15,51,10.40
2011,04,17,15,52,10.40
2011,04,17,15,53,10.30
2011,04,17,15,54,10.30
2011,04,17,15,55,10.20
2011,04,17,15,56,10.20
2011,04,17,15,57,10.20
2011,04,17,15,58,10.20
2011,04,17,15,59,10.20
2011,04,17,16,00,10.30
2011,04,17,16,01,10.30
2011,04,17,16,02,10.40
2011,04,17,16,03,10.40
2011,04,17,16,04,10.40
2011,04,17,16,05,10.30
2011,04,17,16,06,10.30
2011,04,17,16,07,10.30
2011,04,17,16,08,10.30
2011,04,17,16,09,10.40
2011,04,17,16,10,10.40
2011,04,17,16,11,10.30
2011,04,17,16,12,10.20
2011,04,17,16,13,10.10
2011,04,17,16,14,10.00
2011,04,17,16,15,9.90
2011,04,17,16,16,9.90
2011,04,17,16,17,9.90
2011,04,17,16,18,10.00
2011,04,17,16,19,10.00
2011,04,17,16,20,10.10
2011,04,17,16,21,10.20
2011,04,17,16,22,10.30
2011,04,17,16,23,10.30
2011,04,17,16,24,10.20
2011,04,17,16,25,10.20
2011,04,17,16,26,10.20
2011,04,17,16,27,10.20
2011,04,17,16,28,10.30
2011,04,17,16,29,10.30
2011,04,17,16,30,10.30
2011,04,17,16,31,10.30
2011,04,17,16,32,10.40
2011,04,17,16,33,10.50
2011,04,17,16,34,10.50
2011,04,17,16,35,10.50
2011,04,17,16,36,10.50
2011,04,17,16,37,10.50
2011,04,17,16,38,10.40
2011,04,17,16,39,10.40
2011,04,17,16,40,10.30
2011,04,17,16,41,10.20
2011,04,17,16,42,10.10
2011,04,17,16,43,10.00
2011,04,17,16,44,9.80
2011,04,17,16,45,9.70
2011,04,17,16,46,9.50
2011,04,17,16,47,9.40
2011,04,17,16,48,9.40
2011,04,17,16,49,9.40
2011,04,17,16,50,9.40
2011,04,17,16,51,9.40
2011,04,17,16,52,9.40
2011,04,17,16,53,9.40
2011,04,17,16,54,9.30
2011,04,17,16,55,9.30
2011,04,17,16,56,9.30
2011,04,17,16,57,9.20
2011,04,17,16,58,9.20
2011,04,17,16,59,9.10
2011,04,17,17,00,9.00
2011,04,17,17,01,8.90
2011,04,17,17,02,8.80
2011,04,17,17,03,8.70
2011,04,17,17,04,8.50
2011,04,17,17,05,8.40
2011,04,17,17,06,8.40
2011,04,17,17,07,8.30
2011,04,17,17,08,8.30
2011,04,17,17,09,8.20
2011,04,17,17,10,8.20
2011,04,17,17,11,8.10
2011,04,17,17,12,8.10
2011,04,17,17,13,8.10
2011,04,17,17,14,8.10
2011,04,17,17,15,8.10
2011,04,17,17,16,8.00
2011,04,17,17,17,8.00
2011,04,17,17,18,8.00
2011,04,17,17,19,8.00
2011,04,17,17,20,8.00
2011,04,17,17,21,8.00
2011,04,17,17,22,8.00
2011,04,17,17,23,8.00
2011,04,17,17,24,8.00
2011,04,17,17,25,8.00
2011,04,17,17,26,8.00
2011,04,17,17,27,8.00
2011,04,17,17,28,7.90
2011,04,17,17,29,7.90
2011,04,17,17,30,7.80
2011,04,17,17,31,7.80
2011,04,17,17,32,7.70
2011,04,17,17,33,7.70
2011,04,17,17,34,7.60
2011,04,17,17,35,7.60
2011,04,17,17,36,7.60
2011,04,17,17,37,7.50
2011,04,17,17,38,7.50
2011,04,17,17,39,7.40
2011,04,17,17,40,7.40
2011,04,17,17,41,7.40
2011,04,17,17,42,7.40
2011,04,17,17,43,7.30
2011,04,17,17,44,7.30
2011,04,17,17,45,7.30
2011,04,17,17,46,7.30
2011,04,17,17,47,7.30
2011,04,17,17,48,7.20
2011,04,17,17,49,7.20
2011,04,17,17,50,7.20
2011,04,17,17,51,7.10
2011,04,17,17,52,7.10
2011,04,17,17,53,7.10
2011,04,17,17,54,7.00
2011,04,17,17,55,7.00